FW8207 Weather Reports


time (UTC)temp
C
wind
direction
speed
KPH
gust
KPH
rain 1hr
cm
rain 24hr
cm
rain mn
cm
humidity
%
barometer
mb
20260510153816 18 17 8.0 8.0 0.00 0.00 0.00 67 1017.9
20260510153312 18 95 1.6 1.6 0.00 0.00 0.00 69 1018.1
20260510152809 18 10 8.0 9.7 0.00 0.00 0.00 68 1017.9
20260510152307 18 20 12.9 14.5 0.00 0.00 0.00 69 1018.1
20260510151802 18 294 9.7 12.9 0.00 0.00 0.00 69 1018.2
20260510151300 18 119 3.2 4.8 0.00 0.00 0.00 70 1018.2
20260510150755 18 321 11.3 14.5 0.00 0.00 0.00 70 1018.1
20260510150252 18 44 4.8 8.0 0.00 0.00 0.00 71 1018.2
20260510145748 18 33 8.0 9.7 0.00 0.00 0.00 71 1018.1
20260510145245 18 350 8.0 9.7 0.00 0.00 0.00 70 1018.2
20260510144741 18 14 4.8 4.8 0.00 0.00 0.00 71 1018.2
20260510144238 18 114 1.6 3.2 0.00 0.00 0.00 71 1018.3
20260510143737 17 86 3.2 3.2 0.00 0.00 0.00 71 1018.2
20260510143234 17 86 3.2 8.0 0.00 0.00 0.00 72 1018.3
20260510142731 18 102 3.2 3.2 0.00 0.00 0.00 72 1018.3
20260510142228 18 42 9.7 12.9 0.00 0.00 0.00 70 1018.2
20260510141725 18 20 11.3 16.1 0.00 0.00 0.00 70 1018.1
20260510141223 18 355 4.8 8.0 0.00 0.00 0.00 71 1018.1
20260510140719 18 228 1.6 3.2 0.00 0.00 0.00 71 1018.2
20260510140214 18 352 8.0 9.7 0.00 0.00 0.00 71 1018.0
20260510135709 18 29 11.3 14.5 0.00 0.00 0.00 70 1017.7
20260510135205 18 134 1.6 3.2 0.00 0.00 0.00 71 1017.8
20260510134702 17 84 3.2 3.2 0.00 0.00 0.00 71 1017.6
20260510134159 17 340 3.2 3.2 0.00 0.00 0.00 74 1017.5
20260510133655 17 89 8.0 11.3 0.00 0.00 0.00 73 1017.3
20260510133151 17 80 4.8 11.3 0.00 0.00 0.00 74 1017.1
20260510132647 17 8 6.4 11.3 0.00 0.00 0.00 75 1017.0
20260510132144 17 316 4.8 8.0 0.00 0.00 0.00 77 1017.1
20260510131642 16 82 4.8 8.0 0.00 0.00 0.00 78 1017.0
20260510131139 16 58 1.6 3.2 0.00 0.00 0.00 80 1017.0
20260510130636 16 59 4.8 8.0 0.00 0.00 0.00 79 1017.1
20260510130133 16 70 3.2 3.2 0.00 0.00 0.00 81 1016.8
20260510125629 16 81 0.0 1.6 0.00 0.00 0.00 82 1016.6
20260510125126 16 89 1.6 3.2 0.00 0.00 0.00 83 1016.6
20260510124623 16 107 8.0 11.3 0.00 0.00 0.00 83 1016.6
20260510124119 16 76 3.2 4.8 0.00 0.00 0.00 82 1016.6
20260510123615 16 105 1.6 1.6 0.00 0.00 0.00 82 1016.5
20260510123111 16 119 0.0 1.6 0.00 0.00 0.00 83 1016.6
20260510122607 15 122 1.6 1.6 0.00 0.00 0.00 84 1016.0
20260510122103 15 99 6.4 9.7 0.00 0.00 0.00 85 1016.2
20260510121600 15 82 1.6 1.6 0.00 0.00 0.00 85 1016.6
20260510121057 14 107 1.6 1.6 0.00 0.00 0.00 85 1016.3
20260510120555 14 61 3.2 3.2 0.00 0.00 0.00 85 1016.2
20260510120050 13 109 1.6 3.2 0.00 0.00 0.00 86 1015.8
20260510115547 13 96 1.6 3.2 0.00 0.00 0.00 86 1015.8
20260510115044 13 81 3.2 4.8 0.00 0.00 0.00 85 1015.8
20260510114540 13 91 4.8 8.0 0.00 0.00 0.00 85 1015.7
20260510114036 13 111 1.6 3.2 0.00 0.00 0.00 86 1015.9
20260510113531 13 108 0.0 1.6 0.00 0.00 0.00 87 1015.8
20260510113029 12 99 4.8 8.0 0.00 0.00 0.00 88 1015.5
20260510112526 12 106 1.6 1.6 0.00 0.00 0.00 89 1015.6
20260510112022 12 109 3.2 3.2 0.00 0.00 0.00 91 1015.8
20260510111519 12 92 1.6 1.6 0.00 0.00 0.00 91 1015.2
20260510111015 12 119 0.0 0.0 0.00 0.00 0.00 92 1015.4
20260510110511 12 84 1.6 3.2 0.00 0.00 0.00 92 1015.2
20260510110008 12 124 0.0 1.6 0.00 0.00 0.00 92 1015.2
20260510105502 12 115 0.0 0.0 0.00 0.00 0.00 91 1015.0
20260510104958 12 117 0.0 0.0 0.00 0.00 0.00 91 1014.9
20260510104455 12 118 1.6 1.6 0.00 0.00 0.00 91 1015.2
20260510103951 12 121 0.0 0.0 0.00 0.00 0.00 91 1015.0
20260510103449 12 110 0.0 1.6 0.00 0.00 0.00 91 1015.0
20260510102944 12 116 0.0 0.0 0.00 0.00 0.00 91 1015.0
20260510102440 12 104 1.6 1.6 0.00 0.00 0.00 91 1014.9
20260510101937 12 115 0.0 0.0 0.00 0.00 0.00 91 1014.9
20260510101435 12 122 0.0 0.0 0.00 0.00 0.00 91 1014.7
20260510100933 12 132 0.0 0.0 0.00 0.00 0.00 91 1014.9
20260510100429 12 127 1.6 1.6 0.00 0.00 0.00 91 1014.7
20260510095925 12 127 1.6 1.6 0.00 0.00 0.00 90 1014.8
20260510095421 12 122 0.0 0.0 0.00 0.00 0.00 89 1014.7
20260510094920 12 118 0.0 0.0 0.00 0.00 0.00 89 1014.7
20260510094415 13 48 3.2 3.2 0.00 0.00 0.00 88 1014.4
20260510093911 13 16 6.4 8.0 0.00 0.00 0.00 87 1014.5
20260510093407 13 108 0.0 1.6 0.00 0.00 0.00 87 1014.4
20260510092903 13 112 0.0 0.0 0.00 0.00 0.00 87 1014.5
20260510092401 13 121 0.0 0.0 0.00 0.00 0.00 87 1014.3
20260510091855 13 117 0.0 0.0 0.00 0.00 0.00 88 1014.2
20260510091353 13 123 0.0 0.0 0.00 0.00 0.00 88 1014.1
20260510090849 13 116 0.0 0.0 0.00 0.00 0.00 88 1013.9
20260510090345 13 106 1.6 1.6 0.00 0.00 0.00 89 1014.3
20260510085841 13 113 1.6 1.6 0.00 0.00 0.00 88 1014.2
20260510085336 13 114 1.6 1.6 0.00 0.00 0.00 88 1014.1
20260510084832 13 109 1.6 1.6 0.00 0.00 0.00 89 1013.7
20260510084329 13 113 1.6 1.6 0.00 0.00 0.00 91 1014.0
20260510083826 13 131 3.2 3.2 0.00 0.00 0.00 90 1013.9
20260510083323 13 113 1.6 1.6 0.00 0.00 0.00 89 1013.9
20260510082818 13 124 1.6 1.6 0.00 0.00 0.00 89 1013.9
20260510082316 13 131 1.6 1.6 0.00 0.00 0.00 91 1013.9
20260510081814 13 109 0.0 0.0 0.00 0.00 0.00 90 1014.3
20260510081310 12 116 0.0 0.0 0.00 0.00 0.00 90 1014.0
20260510080807 12 109 1.6 1.6 0.00 0.00 0.00 90 1014.2
20260510080301 12 125 0.0 0.0 0.00 0.00 0.00 90 1014.4
20260510075759 12 119 0.0 0.0 0.00 0.00 0.00 90 1014.3
20260510075256 12 108 1.6 1.6 0.00 0.00 0.00 90 1014.2
20260510074753 12 127 0.0 0.0 0.00 0.00 0.00 89 1014.3
20260510074250 12 105 1.6 1.6 0.00 0.00 0.00 90 1014.0
20260510073746 12 98 1.6 3.2 0.00 0.00 0.00 89 1014.1
20260510073242 12 132 0.0 0.0 0.00 0.00 0.00 89 1014.2
20260510072737 12 121 0.0 0.0 0.00 0.00 0.00 88 1014.3
20260510072234 12 113 0.0 0.0 0.00 0.00 0.00 87 1014.1
20260510071731 13 122 0.0 0.0 0.00 0.00 0.00 87 1014.1
20260510071228 12 102 1.6 1.6 0.00 0.00 0.00 87 1013.9
20260510070726 13 109 0.0 1.6 0.00 0.00 0.00 87 1013.9
20260510070223 13 108 1.6 1.6 0.00 0.00 0.00 86 1014.0
20260510065718 13 125 1.6 3.2 0.00 0.00 0.00 85 1014.2
20260510065214 13 110 1.6 1.6 0.00 0.00 0.00 85 1013.9
20260510064711 13 116 0.0 0.0 0.00 0.00 0.00 84 1014.0
20260510064209 13 52 4.8 4.8 0.00 0.00 0.00 84 1014.0
20260510063705 13 78 1.6 1.6 0.00 0.00 0.00 86 1014.0
20260510063201 13 12 4.8 4.8 0.00 0.00 0.00 87 1013.9
20260510062658 13 114 0.0 0.0 0.00 0.00 0.00 86 1013.7
20260510062154 13 115 0.0 0.0 0.00 0.00 0.00 86 1013.7
20260510061649 13 121 0.0 0.0 0.00 0.00 0.00 86 1013.4
20260510061147 13 129 0.0 0.0 0.00 0.00 0.00 86 1013.6
20260510060643 13 124 0.0 0.0 0.00 0.00 0.00 85 1013.4
20260510060140 13 122 0.0 0.0 0.00 0.00 0.00 85 1013.6
20260510055636 13 123 0.0 0.0 0.00 0.00 0.00 85 1013.4
20260510055134 13 119 0.0 0.0 0.00 0.00 0.00 84 1013.5
20260510054629 13 121 0.0 0.0 0.00 0.00 0.00 83 1013.5
20260510054125 13 123 0.0 0.0 0.00 0.00 0.00 85 1013.7
20260510053624 13 123 0.0 0.0 0.00 0.00 0.00 85 1013.7
20260510053121 14 124 0.0 0.0 0.00 0.00 0.00 85 1013.6
20260510052617 14 121 0.0 0.0 0.00 0.00 0.00 84 1014.0
20260510052114 14 121 0.0 0.0 0.00 0.00 0.00 84 1013.6
20260510051609 14 120 0.0 0.0 0.00 0.00 0.00 84 1013.6
20260510051107 14 124 0.0 0.0 0.00 0.00 0.00 84 1013.2
20260510050604 15 127 0.0 0.0 0.00 0.00 0.00 83 1013.5
20260510050100 15 127 0.0 0.0 0.00 0.00 0.00 83 1013.4
20260510045558 15 122 0.0 0.0 0.00 0.03 0.03 83 1013.4
20260510045053 15 118 0.0 0.0 0.00 0.03 0.03 82 1013.4
20260510044550 15 117 0.0 0.0 0.00 0.03 0.03 81 1013.4
20260510044048 15 129 0.0 0.0 0.00 0.03 0.03 81 1013.5
20260510043543 15 122 0.0 0.0 0.00 0.03 0.03 80 1013.4
20260510043039 15 123 0.0 0.0 0.00 0.03 0.03 80 1013.4
20260510042533 15 127 0.0 0.0 0.00 0.03 0.03 80 1013.3
20260510042028 15 124 0.0 0.0 0.00 0.03 0.03 80 1013.2
20260510041526 15 123 0.0 0.0 0.00 0.03 0.03 80 1013.2
20260510041023 15 127 0.0 0.0 0.00 0.03 0.03 80 1012.9
20260510040519 15 121 0.0 0.0 0.00 0.03 0.03 81 1012.9
20260510040015 15 122 0.0 0.0 0.00 0.03 0.03 81 1013.0
20260510035512 15 126 0.0 0.0 0.00 0.03 0.03 80 1013.0
20260510035011 15 122 0.0 0.0 0.00 0.03 0.03 80 1012.9
20260510034510 15 121 0.0 0.0 0.00 0.03 0.03 81 1013.0
20260510034006 15 123 0.0 0.0 0.00 0.03 0.03 81 1013.0
20260510033502 15 118 0.0 0.0 0.00 0.03 0.03 81 1013.0
20260510033001 15 121 0.0 0.0 0.00 0.03 0.03 80 1013.0
20260510032457 15 123 0.0 0.0 0.00 0.03 0.03 78 1013.1
20260510031957 15 120 0.0 0.0 0.00 0.03 0.03 78 1012.9
20260510031452 15 119 0.0 0.0 0.00 0.03 0.03 78 1012.9
20260510030949 15 127 0.0 0.0 0.00 0.03 0.03 78 1012.8
20260510030444 15 123 0.0 0.0 0.00 0.03 0.03 75 1012.7
20260510025942 15 124 0.0 0.0 0.00 0.03 0.03 75 1012.6
20260510025439 16 121 0.0 0.0 0.00 0.03 0.03 74 1012.6
20260510024936 16 120 0.0 0.0 0.00 0.03 0.03 74 1012.4
20260510024433 16 117 1.6 1.6 0.00 0.03 0.03 75 1012.3
20260510023928 16 126 1.6 1.6 0.00 0.03 0.03 75 1012.0
20260510023425 16 119 0.0 0.0 0.00 0.03 0.03 74 1012.2
20260510022922 16 96 3.2 3.2 0.00 0.03 0.03 76 1011.9
20260510022421 16 126 0.0 0.0 0.00 0.03 0.03 73 1012.1
20260510021920 16 116 0.0 0.0 0.00 0.03 0.03 72 1011.8
20260510021419 16 122 0.0 0.0 0.00 0.03 0.03 71 1011.5
20260510020915 16 120 0.0 0.0 0.00 0.03 0.03 73 1011.5
20260510020410 16 122 0.0 0.0 0.00 0.03 0.03 73 1011.5
20260510015906 16 123 0.0 0.0 0.00 0.03 0.03 74 1011.1
20260510015402 17 121 0.0 0.0 0.00 0.03 0.03 74 1011.0
20260510014857 17 114 1.6 1.6 0.00 0.03 0.03 74 1011.1
20260510014355 17 119 0.0 0.0 0.00 0.03 0.03 72 1010.8
20260510013851 17 124 0.0 0.0 0.00 0.03 0.03 72 1010.9
20260510013346 18 124 0.0 0.0 0.00 0.03 0.03 71 1010.8
20260510012841 18 124 0.0 0.0 0.00 0.03 0.03 70 1010.8
20260510012341 18 122 0.0 0.0 0.00 0.03 0.03 69 1010.8
20260510011837 18 122 0.0 0.0 0.00 0.03 0.03 68 1010.7
20260510011332 19 125 0.0 0.0 0.00 0.03 0.03 66 1010.9
20260510010829 20 122 0.0 0.0 0.00 0.03 0.03 66 1010.9
20260510010326 20 116 0.0 0.0 0.00 0.03 0.03 67 1010.6
20260510005822 20 125 0.0 0.0 0.00 0.03 0.03 61 1010.8
20260510005319 21 124 0.0 0.0 0.00 0.03 0.03 62 1010.8
20260510004817 21 122 0.0 0.0 0.00 0.03 0.03 59 1010.8
20260510004314 22 124 0.0 0.0 0.00 0.03 0.03 57 1010.6
20260510003812 22 127 0.0 0.0 0.00 0.03 0.03 55 1010.4
20260510003308 23 128 0.0 0.0 0.00 0.03 0.03 54 1010.4
20260510002807 24 126 0.0 0.0 0.00 0.03 0.03 52 1010.4
20260510002307 25 126 0.0 0.0 0.00 0.03 0.03 49 1010.3
20260510001801 25 127 0.0 0.0 0.00 0.03 0.03 47 1010.3
20260510001259 26 134 0.0 0.0 0.00 0.03 0.03 44 1010.5
20260510000754 26 136 0.0 0.0 0.00 0.03 0.03 42 1010.5
20260510000253 25 142 0.0 0.0 0.00 0.03 0.03 46 1010.3
20260509235749 25 151 1.6 1.6 0.00 0.03 0.03 42 1010.4
20260509235246 26 178 1.6 3.2 0.00 0.03 0.03 40 1010.3
20260509234741 26 154 1.6 1.6 0.00 0.03 0.03 44 1010.3
20260509234238 26 180 3.2 4.8 0.00 0.03 0.03 41 1010.4
20260509233737 26 166 1.6 1.6 0.00 0.03 0.03 40 1010.5
20260509233234 26 163 1.6 3.2 0.00 0.03 0.03 42 1010.5
20260509232730 26 194 3.2 3.2 0.00 0.03 0.03 40 1010.3
20260509232227 26 205 3.2 3.2 0.00 0.03 0.03 41 1010.3
20260509231724 26 170 1.6 3.2 0.00 0.03 0.03 42 1010.1
20260509231221 26 162 1.6 1.6 0.00 0.03 0.03 38 1010.4
20260509230719 26 173 3.2 3.2 0.00 0.03 0.03 37 1010.6
20260509230215 26 198 3.2 3.2 0.00 0.03 0.03 38 1010.6
20260509225710 26 186 3.2 3.2 0.00 0.03 0.03 38 1010.2
20260509225206 27 184 4.8 4.8 0.00 0.03 0.03 38 1010.4
20260509224656 27 180 1.6 3.2 0.00 0.03 0.03 37 1010.5
20260509224154 27 171 1.6 1.6 0.00 0.03 0.03 32 1010.2
20260509223650 27 207 6.4 8.0 0.00 0.03 0.03 32 1010.2
20260509223148 27 189 3.2 4.8 0.00 0.03 0.03 31 1010.3
20260509222644 27 130 1.6 3.2 0.00 0.03 0.03 33 1010.3
20260509222140 27 263 4.8 4.8 0.00 0.03 0.03 34 1010.4
20260509221636 27 203 4.8 4.8 0.00 0.03 0.03 37 1010.4
20260509221132 27 185 4.8 4.8 0.00 0.03 0.03 34 1010.4
20260509220628 27 257 6.4 8.0 0.00 0.03 0.03 39 1010.2
20260509220124 27 224 4.8 4.8 0.00 0.03 0.03 36 1010.2
20260509215620 27 166 8.0 9.7 0.00 0.03 0.03 33 1010.4
20260509215117 27 170 4.8 4.8 0.00 0.03 0.03 33 1010.4
20260509214614 27 229 9.7 12.9 0.00 0.03 0.03 35 1010.4
20260509214111 27 199 3.2 3.2 0.00 0.03 0.03 35 1010.5
20260509213607 27 142 1.6 3.2 0.00 0.03 0.03 34 1010.4
20260509213104 27 179 8.0 9.7 0.00 0.03 0.03 34 1010.6
20260509212601 27 215 4.8 8.0 0.00 0.03 0.03 32 1010.4
20260509212058 28 159 0.0 1.6 0.00 0.03 0.03 32 1010.4
20260509211554 27 59 1.6 3.2 0.00 0.03 0.03 32 1010.5
20260509211050 27 169 1.6 1.6 0.00 0.03 0.03 32 1010.4
20260509210547 27 220 6.4 8.0 0.00 0.03 0.03 33 1010.4
20260509210044 27 140 3.2 4.8 0.00 0.03 0.03 35 1010.3
20260509205544 27 163 4.8 8.0 0.00 0.03 0.03 40 1010.5
20260509205039 27 178 4.8 4.8 0.00 0.03 0.03 34 1010.6
20260509204536 27 329 4.8 4.8 0.00 0.03 0.03 31 1010.5
20260509204032 27 195 3.2 3.2 0.00 0.03 0.03 34 1010.7
20260509203527 26 246 4.8 4.8 0.00 0.03 0.03 35 1010.7
20260509203027 26 206 4.8 4.8 0.00 0.03 0.03 34 1010.7
20260509202521 27 241 6.4 9.7 0.00 0.03 0.03 35 1010.7
20260509202017 27 273 8.0 11.3 0.00 0.03 0.03 34 1010.9
20260509201512 27 19 4.8 4.8 0.00 0.03 0.03 36 1011.0
20260509201010 27 141 1.6 3.2 0.00 0.03 0.03 35 1011.1
20260509200504 27 245 6.4 9.7 0.00 0.03 0.03 40 1011.1
20260509200001 27 234 6.4 8.0 0.00 0.03 0.03 34 1011.3
20260509195456 27 168 3.2 3.2 0.00 0.03 0.03 36 1011.3
20260509194955 26 355 4.8 4.8 0.00 0.03 0.03 40 1011.3
20260509194451 26 292 4.8 4.8 0.00 0.03 0.03 36 1011.1
20260509193949 26 179 4.8 4.8 0.00 0.03 0.03 38 1011.1
20260509193448 26 193 4.8 4.8 0.00 0.03 0.03 38 1011.3
20260509192945 27 219 11.3 12.9 0.00 0.03 0.03 35 1011.1
20260509192442 27 189 3.2 3.2 0.00 0.03 0.03 37 1011.4
20260509191937 27 159 1.6 1.6 0.00 0.03 0.03 38 1011.3
20260509191432 27 205 4.8 8.0 0.00 0.03 0.03 39 1011.4
20260509190928 26 101 1.6 3.2 0.00 0.03 0.03 35 1011.4
20260509190426 26 117 0.0 1.6 0.00 0.03 0.03 39 1011.4
20260509185923 27 44 3.2 4.8 0.00 0.03 0.03 38 1011.6
20260509185420 26 3 4.8 4.8 0.00 0.03 0.03 36 1011.4
20260509184917 26 204 4.8 4.8 0.00 0.03 0.03 37 1011.3
20260509184414 26 279 4.8 8.0 0.00 0.03 0.03 37 1011.4
20260509183911 26 163 3.2 3.2 0.00 0.03 0.03 37 1011.3
20260509183405 26 319 3.2 3.2 0.00 0.03 0.03 37 1011.3
20260509182902 26 81 1.6 3.2 0.00 0.03 0.03 37 1011.4
20260509182359 27 12 4.8 4.8 0.00 0.03 0.03 36 1011.3
20260509181856 26 180 0.0 1.6 0.00 0.03 0.03 37 1011.3
20260509181353 26 33 3.2 3.2 0.00 0.03 0.03 40 1011.1
20260509180851 26 121 0.0 1.6 0.00 0.03 0.03 38 1011.4
20260509180346 25 251 1.6 4.8 0.00 0.03 0.03 40 1011.3
20260509175843 25 9 6.4 11.3 0.00 0.03 0.03 44 1011.5
20260509175340 25 225 11.3 11.3 0.00 0.03 0.03 45 1011.5
20260509174835 26 171 4.8 4.8 0.00 0.03 0.03 47 1011.6
20260509174332 26 112 0.0 0.0 0.00 0.03 0.03 46 1011.6
20260509173827 25 108 3.2 3.2 0.00 0.03 0.03 46 1011.7
20260509173323 25 214 11.3 12.9 0.00 0.03 0.03 49 1011.8
20260509172820 25 287 6.4 8.0 0.00 0.03 0.03 48 1011.6
20260509172316 25 284 9.7 11.3 0.00 0.03 0.03 48 1011.8
20260509171812 25 201 3.2 4.8 0.00 0.03 0.03 51 1011.7
20260509171308 25 314 3.2 3.2 0.00 0.03 0.03 47 1011.8
20260509170805 25 224 4.8 8.0 0.00 0.03 0.03 47 1011.6
20260509170301 25 203 8.0 11.3 0.00 0.03 0.03 49 1011.8
20260509165800 25 155 3.2 3.2 0.00 0.03 0.03 50 1012.0
20260509165255 25 29 3.2 3.2 0.00 0.03 0.03 49 1011.8
20260509164751 24 211 4.8 4.8 0.00 0.03 0.03 52 1011.8
20260509164248 23 184 6.4 9.7 0.00 0.03 0.03 53 1011.9
20260509163745 23 212 8.0 8.0 0.00 0.03 0.03 51 1011.7
20260509163241 24 228 4.8 8.0 0.00 0.03 0.03 57 1012.0
20260509162740 24 176 1.6 1.6 0.00 0.03 0.03 54 1011.8
20260509162233 24 201 3.2 3.2 0.00 0.03 0.03 55 1011.7
20260509161729 23 213 3.2 3.2 0.00 0.03 0.03 53 1011.7
20260509161226 23 216 8.0 9.7 0.00 0.03 0.03 56 1011.7
20260509160721 24 225 4.8 8.0 0.00 0.03 0.03 59 1011.8
20260509160218 23 102 0.0 1.6 0.00 0.03 0.03 61 1011.7
20260509155713 23 194 4.8 8.0 0.00 0.03 0.03 58 1011.7
20260509155210 23 206 6.4 8.0 0.00 0.03 0.03 58 1011.6
20260509154706 22 161 3.2 4.8 0.00 0.03 0.03 60 1011.5
20260509154203 22 228 4.8 4.8 0.00 0.03 0.03 63 1011.6